FCK2FT EDDS-EDDS

Flight info

Callsign FCK2FT
Flight time 1h 1m
Altitude 13000
Route ROTWE5B/25 ROTWE DCT LOKTA T122 ARFAS
Aircraft BE20/L-SBGRY/S

Departure

Time 2026-05-04 18:22
Airport Stuttgart Airport (EDDS)

Arrival

Time 2026-05-04 19:23
Airport Stuttgart Airport (EDDS)
Time Latitude Longitude Altitude Speed Heading
2026-05-04 18:17 48.69178 9.21240 1267 ft 0 kts 166°
2026-05-04 18:18 48.69147 9.21282 1264 ft 8 kts 148°
2026-05-04 18:18 48.69090 9.21358 1263 ft 16 kts 74°
2026-05-04 18:19 48.69183 9.21860 1249 ft 29 kts 71°
2026-05-04 18:19 48.69241 9.22157 1247 ft 24 kts 73°
2026-05-04 18:19 48.69286 9.22394 1234 ft 23 kts 83°
2026-05-04 18:20 48.69205 9.22502 1228 ft 20 kts 165°
2026-05-04 18:20 48.69124 9.22537 1221 ft 13 kts 164°
2026-05-04 18:20 48.69042 9.22490 1223 ft 11 kts 255°
2026-05-04 18:20 48.69040 9.22480 1223 ft 0 kts 253°
2026-05-04 18:21 48.69039 9.22474 1223 ft 9 kts 254°
2026-05-04 18:21 48.68952 9.22003 1239 ft 82 kts 253°
2026-05-04 18:21 48.68734 9.20871 1304 ft 136 kts 256°
2026-05-04 18:21 48.68440 9.19305 1465 ft 178 kts 255°
2026-05-04 18:22 48.67753 9.17843 2187 ft 174 kts 205°
2026-05-04 18:22 48.66577 9.17821 2912 ft 179 kts 152°
2026-05-04 18:22 48.65703 9.19228 3250 ft 196 kts 119°
2026-05-04 18:22 48.64993 9.21129 3392 ft 218 kts 116°
2026-05-04 18:23 48.64297 9.23251 3446 ft 228 kts 107°
2026-05-04 18:23 48.64215 9.25627 3454 ft 230 kts 81°
2026-05-04 18:23 48.64430 9.28047 3469 ft 234 kts 78°
2026-05-04 18:23 48.64741 9.30473 3486 ft 236 kts 76°
2026-05-04 18:24 48.65151 9.32878 3480 ft 236 kts 71°
2026-05-04 18:24 48.65618 9.35220 3471 ft 235 kts 70°
2026-05-04 18:24 48.66107 9.37581 3477 ft 235 kts 70°
2026-05-04 18:24 48.66586 9.39962 3370 ft 241 kts 71°
2026-05-04 18:25 48.67302 9.42239 2980 ft 243 kts 44°
2026-05-04 18:25 48.68723 9.43344 2707 ft 223 kts
2026-05-04 18:25 48.70122 9.42725 2600 ft 207 kts 321°
2026-05-04 18:25 48.70828 9.40964 2540 ft 191 kts 292°
2026-05-04 18:26 48.71249 9.39031 2528 ft 197 kts 288°
2026-05-04 18:26 48.71546 9.36987 2513 ft 202 kts 275°
2026-05-04 18:26 48.71415 9.34852 2423 ft 209 kts 262°
2026-05-04 18:26 48.71072 9.32681 2059 ft 217 kts 256°
2026-05-04 18:27 48.70618 9.30489 1751 ft 217 kts 255°
2026-05-04 18:27 48.70165 9.28388 1676 ft 195 kts 258°
2026-05-04 18:27 48.69789 9.26462 1879 ft 185 kts 257°
2026-05-04 18:27 48.69412 9.24651 2093 ft 184 kts 248°
2026-05-04 18:28 48.68420 9.23274 2333 ft 213 kts 199°
2026-05-04 18:28 48.66900 9.23316 2451 ft 231 kts 155°
2026-05-04 18:28 48.65680 9.24861 2497 ft 233 kts 124°
2026-05-04 18:28 48.64756 9.26915 2518 ft 238 kts 117°
2026-05-04 18:29 48.64435 9.29273 2722 ft 226 kts 83°
2026-05-04 18:29 48.64618 9.31618 2884 ft 226 kts 77°
2026-05-04 18:29 48.64957 9.33961 2950 ft 230 kts 73°
2026-05-04 18:29 48.65359 9.36313 2954 ft 232 kts 72°
2026-05-04 18:30 48.66216 9.41016 2979 ft 235 kts 72°
2026-05-04 18:30 48.66656 9.43352 2965 ft 233 kts 71°
2026-05-04 18:30 48.67470 9.45376 2978 ft 227 kts 36°
2026-05-04 18:31 48.68941 9.46054 2990 ft 227 kts 355°
2026-05-04 18:31 48.70350 9.45037 3003 ft 232 kts 314°
2026-05-04 18:31 48.71107 9.42880 3008 ft 236 kts 292°
2026-05-04 18:31 48.71616 9.40513 2997 ft 236 kts 289°
2026-05-04 18:32 48.71829 9.38249 2985 ft 211 kts 269°
2026-05-04 18:32 48.71651 9.36072 2759 ft 209 kts 261°
2026-05-04 18:32 48.71261 9.33946 2516 ft 210 kts 255°
2026-05-04 18:32 48.70804 9.31878 2476 ft 202 kts 253°
2026-05-04 18:33 48.70320 9.29912 2288 ft 200 kts 257°
2026-05-04 18:33 48.69995 9.27823 1862 ft 206 kts 261°
2026-05-04 18:33 48.69654 9.25755 1597 ft 197 kts 258°
2026-05-04 18:33 48.69283 9.23829 1597 ft 198 kts 256°
2026-05-04 18:34 48.68795 9.21890 2220 ft 193 kts 231°
2026-05-04 18:34 48.67654 9.20959 2899 ft 197 kts 185°
2026-05-04 18:34 48.66317 9.21616 3228 ft 211 kts 136°
2026-05-04 18:34 48.65433 9.23393 3392 ft 222 kts 119°
2026-05-04 18:35 48.64637 9.25475 3448 ft 233 kts 116°
2026-05-04 18:35 48.64199 9.27783 3468 ft 230 kts 83°
2026-05-04 18:35 48.64465 9.30174 3485 ft 233 kts 75°
2026-05-04 18:35 48.64856 9.32574 3487 ft 236 kts 72°
2026-05-04 18:36 48.65288 9.34971 3484 ft 236 kts 71°
2026-05-04 18:36 48.65727 9.37362 3471 ft 236 kts 72°
2026-05-04 18:36 48.66175 9.39753 3476 ft 237 kts 72°
2026-05-04 18:36 48.66632 9.42147 3478 ft 236 kts 71°
2026-05-04 18:37 48.67077 9.44492 3484 ft 236 kts 71°
2026-05-04 18:37 48.67530 9.46874 3484 ft 235 kts 72°
2026-05-04 18:37 48.67985 9.49258 3509 ft 237 kts 72°
2026-05-04 18:37 48.68683 9.51438 3500 ft 231 kts 43°
2026-05-04 18:38 48.70102 9.52429 3495 ft 230 kts
2026-05-04 18:38 48.71607 9.51727 3495 ft 233 kts 322°
2026-05-04 18:38 48.72484 9.49683 3487 ft 235 kts 292°
2026-05-04 18:38 48.72965 9.47304 3502 ft 237 kts 287°
2026-05-04 18:39 48.73064 9.44821 3493 ft 239 kts 268°
2026-05-04 18:39 48.72845 9.42338 3498 ft 237 kts 258°
2026-05-04 18:39 48.72400 9.39982 3274 ft 226 kts 255°
2026-05-04 18:39 48.71944 9.37825 2979 ft 210 kts 256°
2026-05-04 18:40 48.71549 9.35768 2699 ft 198 kts 258°
2026-05-04 18:40 48.71187 9.33778 2483 ft 198 kts 257°
2026-05-04 18:40 48.70793 9.31702 2231 ft 211 kts 257°
2026-05-04 18:40 48.70385 9.29550 1944 ft 211 kts 256°
2026-05-04 18:41 48.69988 9.27466 1610 ft 202 kts 257°
2026-05-04 18:41 48.69626 9.25517 1782 ft 184 kts 258°
2026-05-04 18:41 48.69288 9.23697 2508 ft 178 kts 258°
2026-05-04 18:41 48.68647 9.22063 3044 ft 196 kts 217°
2026-05-04 18:42 48.67281 9.21535 3282 ft 216 kts 171°
2026-05-04 18:42 48.65966 9.22604 3410 ft 227 kts 128°
2026-05-04 18:42 48.65069 9.24609 3453 ft 234 kts 118°
2026-05-04 18:42 48.64264 9.26785 3468 ft 240 kts 116°
2026-05-04 18:43 48.63761 9.29138 3489 ft 236 kts 87°
2026-05-04 18:43 48.63967 9.31579 3478 ft 235 kts 77°
2026-05-04 18:43 48.64294 9.34003 3477 ft 236 kts 75°
2026-05-04 18:43 48.64664 9.36409 3475 ft 236 kts 75°
2026-05-04 18:44 48.65052 9.38822 3474 ft 236 kts 73°
2026-05-04 18:44 48.65179 9.39601 3480 ft 236 kts 73°
2026-05-04 18:44 48.65833 9.43613 3483 ft 236 kts 74°
2026-05-04 18:44 48.66232 9.46013 3480 ft 236 kts 73°
2026-05-04 18:45 48.66630 9.48417 3486 ft 235 kts 73°
2026-05-04 18:45 48.67143 9.50737 3499 ft 231 kts 54°
2026-05-04 18:45 48.68416 9.52118 3504 ft 231 kts 14°
2026-05-04 18:45 48.69986 9.51856 3506 ft 233 kts 333°
2026-05-04 18:46 48.71069 9.50058 3502 ft 238 kts 295°
2026-05-04 18:46 48.71599 9.47683 3486 ft 238 kts 289°
2026-05-04 18:46 48.72004 9.45245 3494 ft 239 kts 285°
2026-05-04 18:46 48.72364 9.42792 3500 ft 237 kts 281°
2026-05-04 18:47 48.72341 9.40295 3324 ft 235 kts 267°
2026-05-04 18:47 48.72029 9.37974 2987 ft 216 kts 256°
2026-05-04 18:47 48.71602 9.35884 2693 ft 201 kts 255°
2026-05-04 18:47 48.71203 9.33955 2488 ft 189 kts 257°
2026-05-04 18:48 48.70854 9.32052 2258 ft 185 kts 257°
2026-05-04 18:48 48.70508 9.30189 2013 ft 185 kts 258°
2026-05-04 18:48 48.70148 9.28260 1723 ft 194 kts 258°
2026-05-04 18:48 48.69779 9.26364 1774 ft 180 kts 258°
2026-05-04 18:49 48.69448 9.24620 1968 ft 167 kts 258°
2026-05-04 18:49 48.69134 9.22936 2522 ft 164 kts 257°
2026-05-04 18:49 48.68828 9.21257 3047 ft 171 kts 258°
2026-05-04 18:49 48.68503 9.19426 3278 ft 189 kts 258°
2026-05-04 18:50 48.68172 9.17518 3393 ft 189 kts 258°
2026-05-04 18:50 48.67846 9.15595 3440 ft 189 kts 257°
2026-05-04 18:50 48.67544 9.13665 3453 ft 188 kts 258°
2026-05-04 18:50 48.67253 9.11740 3475 ft 188 kts 258°
2026-05-04 18:51 48.66959 9.09802 3480 ft 190 kts 258°
2026-05-04 18:51 48.66666 9.07857 3495 ft 191 kts 258°
2026-05-04 18:51 48.66362 9.05890 3493 ft 192 kts 258°
2026-05-04 18:51 48.66065 9.03915 3486 ft 197 kts 261°
2026-05-04 18:52 48.66315 9.01829 3611 ft 209 kts 309°
2026-05-04 18:52 48.67446 9.00765 4504 ft 185 kts 346°
2026-05-04 18:52 48.68661 9.00908 5397 ft 173 kts 26°
2026-05-04 18:52 48.69595 9.01949 6249 ft 169 kts 45°
2026-05-04 18:53 48.70453 9.03200 6904 ft 180 kts 46°
2026-05-04 18:53 48.71451 9.04688 6961 ft 220 kts 46°
2026-05-04 18:53 48.72603 9.06399 6978 ft 242 kts 46°
2026-05-04 18:53 48.73847 9.08233 6971 ft 255 kts 46°
2026-05-04 18:54 48.75142 9.10134 7007 ft 263 kts 45°
2026-05-04 18:54 48.76464 9.12071 7043 ft 266 kts 45°
2026-05-04 18:54 48.77797 9.14036 7058 ft 268 kts 46°
2026-05-04 18:54 48.79140 9.16016 7026 ft 269 kts 46°
2026-05-04 18:55 48.80479 9.17995 6980 ft 268 kts 45°
2026-05-04 18:55 48.83123 9.21901 6955 ft 265 kts 46°
2026-05-04 18:55 48.84438 9.23848 6955 ft 264 kts 46°
2026-05-04 18:56 48.85750 9.25791 6955 ft 263 kts 46°
2026-05-04 18:56 48.87062 9.27735 6957 ft 263 kts 46°
2026-05-04 18:56 48.88373 9.29678 6957 ft 263 kts 46°
2026-05-04 18:56 48.89238 9.30963 6956 ft 263 kts 46°
2026-05-04 18:57 48.90547 9.32905 6956 ft 263 kts 46°
2026-05-04 18:57 48.91856 9.34851 6958 ft 263 kts 46°
2026-05-04 18:57 48.93164 9.36794 6965 ft 264 kts 46°
2026-05-04 18:57 48.94483 9.38751 6969 ft 266 kts 46°
2026-05-04 18:58 48.95743 9.40779 6960 ft 261 kts 58°
2026-05-04 18:58 48.96320 9.43269 6962 ft 256 kts 90°
2026-05-04 18:58 48.95969 9.45848 6956 ft 249 kts 121°
2026-05-04 18:58 48.94834 9.47750 6959 ft 243 kts 149°
2026-05-04 18:59 48.93256 9.48539 6961 ft 240 kts 178°
2026-05-04 18:59 48.91653 9.48070 6958 ft 240 kts 205°
2026-05-04 18:59 48.90388 9.46450 6956 ft 244 kts 233°
2026-05-04 18:59 48.89799 9.44015 6950 ft 249 kts 263°
2026-05-04 19:00 48.90024 9.41397 6966 ft 253 kts 281°
2026-05-04 19:00 48.90458 9.38793 6962 ft 255 kts 282°
2026-05-04 19:00 48.90911 9.36177 6957 ft 256 kts 282°
2026-05-04 19:00 48.91363 9.33558 6954 ft 256 kts 282°
2026-05-04 19:01 48.91810 9.30941 6952 ft 256 kts 282°
2026-05-04 19:01 48.92254 9.28318 6952 ft 256 kts 282°
2026-05-04 19:01 48.92839 9.24848 6955 ft 255 kts 282°
2026-05-04 19:01 48.93260 9.23151 6956 ft 256 kts 298°
2026-05-04 19:02 48.94557 9.21354 6957 ft 263 kts 332°
2026-05-04 19:02 48.96344 9.20849 6960 ft 266 kts
2026-05-04 19:02 48.98055 9.21821 6964 ft 265 kts 38°
2026-05-04 19:02 48.99184 9.23978 6965 ft 261 kts 70°
2026-05-04 19:03 48.99419 9.26654 6955 ft 255 kts 101°
2026-05-04 19:03 48.98754 9.29078 6955 ft 247 kts 130°
2026-05-04 19:03 48.97424 9.30656 6961 ft 242 kts 158°
2026-05-04 19:03 48.95858 9.31540 6955 ft 241 kts 161°
2026-05-04 19:04 48.94278 9.32403 6956 ft 242 kts 161°
2026-05-04 19:04 48.92717 9.33257 6957 ft 231 kts 161°
2026-05-04 19:04 48.91243 9.34062 6952 ft 221 kts 161°
2026-05-04 19:04 48.89838 9.34832 6954 ft 216 kts 161°
2026-05-04 19:05 48.88423 9.35746 6958 ft 227 kts 146°
2026-05-04 19:05 48.87536 9.37775 6960 ft 243 kts 105°
2026-05-04 19:05 48.87625 9.40363 6963 ft 251 kts 80°
2026-05-04 19:05 48.88061 9.42952 6957 ft 255 kts 76°
2026-05-04 19:06 48.88567 9.45541 6958 ft 257 kts 75°
2026-05-04 19:06 48.89098 9.48140 6958 ft 258 kts 75°
2026-05-04 19:06 48.89641 9.50739 6957 ft 259 kts 75°
2026-05-04 19:06 48.90178 9.53300 6955 ft 242 kts 75°
2026-05-04 19:07 48.90655 9.55530 6968 ft 219 kts 75°
2026-05-04 19:07 48.91119 9.57653 6989 ft 205 kts 75°
2026-05-04 19:07 48.91564 9.59675 6998 ft 199 kts 75°
2026-05-04 19:07 48.92000 9.61631 7002 ft 192 kts 75°
2026-05-04 19:08 48.92227 9.63584 7012 ft 198 kts 103°
2026-05-04 19:08 48.91894 9.65718 6995 ft 217 kts 109°
2026-05-04 19:08 48.91434 9.67960 6970 ft 226 kts 111°
2026-05-04 19:08 48.90924 9.70229 6953 ft 228 kts 112°
2026-05-04 19:09 48.90392 9.72499 6950 ft 229 kts 112°
2026-05-04 19:09 48.89858 9.74741 6952 ft 229 kts 112°
2026-05-04 19:09 48.89306 9.77036 6950 ft 229 kts 112°
2026-05-04 19:09 48.88780 9.79212 6956 ft 229 kts 112°
2026-05-04 19:10 48.88223 9.81477 6963 ft 229 kts 112°
2026-05-04 19:10 48.87664 9.83738 6965 ft 229 kts 112°
2026-05-04 19:10 48.87142 9.85852 6955 ft 203 kts 113°
2026-05-04 19:10 48.86682 9.87737 6948 ft 178 kts 112°
2026-05-04 19:11 48.86286 9.89410 6954 ft 163 kts 113°
2026-05-04 19:11 48.85891 9.91085 6964 ft 178 kts 112°
2026-05-04 19:11 48.85444 9.92932 6978 ft 193 kts 112°
2026-05-04 19:11 48.84967 9.94872 6973 ft 200 kts 113°
2026-05-04 19:12 48.84477 9.96865 6969 ft 203 kts 112°
2026-05-04 19:12 48.83479 10.00902 6961 ft 205 kts 113°
2026-05-04 19:12 48.82974 10.02907 6954 ft 203 kts 117°
2026-05-04 19:13 48.81999 10.04266 6956 ft 197 kts 163°
2026-05-04 19:13 48.80625 10.04031 6966 ft 218 kts 209°
2026-05-04 19:13 48.79629 10.02216 6970 ft 235 kts 244°
2026-05-04 19:13 48.79064 9.99828 6963 ft 245 kts 250°
2026-05-04 19:14 48.78575 9.97328 6960 ft 249 kts 251°
2026-05-04 19:14 48.78111 9.94793 6952 ft 250 kts 252°
2026-05-04 19:14 48.77654 9.92243 6953 ft 251 kts 253°
2026-05-04 19:14 48.77200 9.89689 6949 ft 252 kts 253°
2026-05-04 19:15 48.76742 9.87130 6949 ft 252 kts 252°
2026-05-04 19:15 48.76285 9.84564 6955 ft 252 kts 253°
2026-05-04 19:15 48.75829 9.82005 6950 ft 252 kts 253°
2026-05-04 19:15 48.75368 9.79410 6684 ft 260 kts 252°
2026-05-04 19:16 48.74896 9.76761 6329 ft 267 kts 252°
2026-05-04 19:16 48.74401 9.74036 5945 ft 269 kts 252°
2026-05-04 19:16 48.73893 9.71300 5570 ft 270 kts 253°
2026-05-04 19:16 48.73364 9.68585 5195 ft 260 kts 253°
2026-05-04 19:17 48.73234 9.66057 4825 ft 238 kts 278°
2026-05-04 19:17 48.73464 9.63618 4445 ft 230 kts 281°
2026-05-04 19:17 48.73734 9.61267 4198 ft 221 kts 282°
2026-05-04 19:17 48.74008 9.59030 4084 ft 211 kts 282°
2026-05-04 19:18 48.74275 9.56890 4017 ft 203 kts 283°
2026-05-04 19:18 48.74517 9.54814 3994 ft 196 kts 282°
2026-05-04 19:18 48.74529 9.52874 3994 ft 173 kts 268°
2026-05-04 19:18 48.74386 9.50936 4001 ft 205 kts 264°
2026-05-04 19:19 48.74076 9.48722 4003 ft 229 kts 256°
2026-05-04 19:19 48.73622 9.46449 3993 ft 219 kts 253°
2026-05-04 19:19 48.73163 9.44269 3894 ft 219 kts 256°
2026-05-04 19:19 48.72736 9.42028 3629 ft 224 kts 256°
2026-05-04 19:20 48.72319 9.39741 3311 ft 227 kts 256°
2026-05-04 19:20 48.71883 9.37484 2968 ft 216 kts 256°
2026-05-04 19:20 48.71479 9.35377 2656 ft 200 kts 257°
2026-05-04 19:20 48.71125 9.33506 2429 ft 169 kts 257°
2026-05-04 19:21 48.70830 9.31931 2195 ft 146 kts 258°
2026-05-04 19:21 48.70572 9.30554 1999 ft 132 kts 258°
2026-05-04 19:21 48.70299 9.29121 1801 ft 155 kts 257°
2026-05-04 19:21 48.69987 9.27528 1698 ft 158 kts 261°
2026-05-04 19:22 48.69684 9.25946 1504 ft 153 kts 257°
2026-05-04 19:22 48.69416 9.24472 1264 ft 137 kts 257°
2026-05-04 19:22 48.69175 9.23193 1212 ft 114 kts 258°
2026-05-04 19:22 48.68993 9.22205 1233 ft 71 kts 253°
2026-05-04 19:23 48.68941 9.21818 1242 ft 26 kts 271°
2026-05-04 19:23 48.68960 9.21629 1247 ft 12 kts 283°
2026-05-04 19:23 48.68987 9.21472 1253 ft 19 kts 287°
2026-05-04 19:23 48.69021 9.21262 1263 ft 22 kts 283°
2026-05-04 19:24 48.69067 9.21095 1265 ft 13 kts 338°
2026-05-04 19:24 48.69135 9.21116 1265 ft 13 kts 78°
2026-05-04 19:24 48.69148 9.21252 1262 ft 1 kts 175°
2026-05-04 19:24 48.69131 9.21259 1261 ft 0 kts 162°